User: anonymous   Login
Location: Feydey
(46.3431°N, 7.0106°E)
Time: 00:00:57
(UTC+00:00)
Language:

Cosmos 1892 - Orbit

View from above orbital plane
View from above orbital plane
View from above satellite
View from above satellite

Ground track
Ground track

The orbit data is extracted from the following two-line orbital elements,

1 18421U 87088A   21271.19420803  .00001638  00000-0  79199-4 0  9994
2 18421  82.5024 170.4054 0013222 238.4008 121.5936 15.17849571855480
Epoch (UTC): 28 September 2021 04:39:39
Eccentricity: 0.0013222
inclination: 82.5024°
perigee height: 503 km
apogee height: 521 km
right ascension of ascending node: 170.4054°
argument of perigee: 238.4008°
revolutions per day: 15.17849571
mean anomaly at epoch: 121.5936°
orbit number at epoch: 85548

The dashed part of the orbit path shows where the satellite is in the earth's shadow,  

DLR